Find Cartosat-1

NORAD ID: 28649 Int'l Des: 2005-017 Owner: ISRO Country: IN operational
LEOCIRCULARRETROGRADESSO

Live-Position

3D-Globus wird geladen...

Über Cartosat-1

Beschreibung wird geladen...

Nächste Überflüge

Passes for default location (London). Set your location on the main map for personalized predictions.

Höhenverlauf

Loading altitude history...

Zweizeiliger Elementsatz

1 28649U 05017A 26106.06653120 .00000686 00000-0 74903-4 0 9997
2 28649 97.5367 131.9410 0000604 99.8550 260.2737 14.90888888134561
Epoch: 16. Apr. 2026 • Age: 16 hours

Aktueller Status

Höhe 610.2 km
Geschwindigkeit 7.55 km/s
Subsatellitenpunkt -38.43°S, 30.72°E
Startdatum 5. Mai 2005
Alter 20.9 years
Typ other

Technische Details

Klassifizierung Payload
Masse 1560.00 kg
Trockenmasse 1560.00 kg
Gesamtmasse 1560.00 kg
Länge 2.80 m
Durchmesser 2.00 m
Spannweite 12.00 m
Form Box + 2 Pan
Hersteller ISRO
Bus-Typ IRS
Phasenstatus In Orbit
Besitzer/Staat ISRO/IN

Most Searched